Time,TemperatureF,DewpointF,PressureIn,WindDirection,WindDirectionDegrees,WindSpeedMPH,WindSpeedGustMPH,Humidity,HourlyPrecipIn,Conditions,Clouds,dailyrainin,SoftwareType,DateUTC
2013-06-01 00:00:00,66.6,51.4,29.85,North,0,0.0,1.0,58,0.00,,CLR,0.00,VWS V14.00,2013-06-01 07:00:00,
2013-06-01 00:01:00,66.7,51.5,29.85,North,0,0.0,0.0,58,0.00,,CLR,0.00,VWS V14.00,2013-06-01 07:01:00,
2013-06-01 00:06:00,66.7,51.5,29.84,North,0,0.0,0.0,58,0.00,,CLR,0.00,VWS V14.00,2013-06-01 07:06:00,
2013-06-01 00:11:00,66.3,50.6,29.85,North,0,0.0,1.0,57,0.00,,CLR,0.00,VWS V14.00,2013-06-01 07:11:00,
2013-06-01 00:16:00,66.3,51.1,29.84,North,0,0.0,1.0,58,0.00,,CLR,0.00,VWS V14.00,2013-06-01 07:16:00,
2013-06-01 00:21:00,65.9,51.2,29.85,North,0,0.0,1.0,59,0.00,,CLR,0.00,VWS V14.00,2013-06-01 07:21:00,
2013-06-01 00:26:00,65.7,50.5,29.84,North,0,0.0,1.0,58,0.00,,CLR,0.00,VWS V14.00,2013-06-01 07:26:00,
2013-06-01 00:30:00,65.8,51.1,29.84,North,0,0.0,1.0,59,0.00,,CLR,0.00,VWS V14.00,2013-06-01 07:30:00,
2013-06-01 00:31:00,65.6,50.9,29.84,North,0,0.0,0.0,59,0.00,,CLR,0.00,VWS V14.00,2013-06-01 07:31:00,
2013-06-01 00:36:00,65.6,50.9,29.85,North,0,0.0,0.0,59,0.00,,CLR,0.00,VWS V14.00,2013-06-01 07:36:00,
2013-06-01 00:41:00,65.3,51.1,29.85,North,0,0.0,0.0,60,0.00,,CLR,0.00,VWS V14.00,2013-06-01 07:41:00,
2013-06-01 00:46:00,65.0,50.8,29.84,North,0,0.0,0.0,60,0.00,,CLR,0.00,VWS V14.00,2013-06-01 07:46:00,
2013-06-01 00:51:00,64.7,50.5,29.84,North,0,0.0,0.0,60,0.00,,CLR,0.00,VWS V14.00,2013-06-01 07:51:00,
2013-06-01 00:56:00,64.7,51.0,29.84,North,0,0.0,0.0,61,0.00,,CLR,0.00,VWS V14.00,2013-06-01 07:56:00,
2013-06-01 01:00:00,64.4,50.7,29.84,North,0,0.0,0.0,61,0.00,,CLR,0.00,VWS V14.00,2013-06-01 08:00:00,
2013-06-01 01:01:00,64.3,50.6,29.84,North,0,0.0,0.0,61,0.00,,CLR,0.00,VWS V14.00,2013-06-01 08:01:00,
2013-06-01 01:06:00,64.1,50.4,29.84,North,0,0.0,0.0,61,0.00,,CLR,0.00,VWS V14.00,2013-06-01 08:06:00,
2013-06-01 01:11:00,63.8,50.1,29.84,North,0,0.0,0.0,61,0.00,,CLR,0.00,VWS V14.00,2013-06-01 08:11:00,
2013-06-01 01:16:00,63.8,50.1,29.84,North,0,0.0,0.0,61,0.00,,CLR,0.00,VWS V14.00,2013-06-01 08:16:00,
2013-06-01 01:21:00,63.8,50.5,29.84,North,0,0.0,0.0,62,0.00,,CLR,0.00,VWS V14.00,2013-06-01 08:21:00,
2013-06-01 01:26:00,63.7,50.5,29.84,North,0,0.0,0.0,62,0.00,,CLR,0.00,VWS V14.00,2013-06-01 08:26:00,
2013-06-01 01:30:00,63.4,50.6,29.84,North,0,0.0,0.0,63,0.00,,CLR,0.00,VWS V14.00,2013-06-01 08:30:00,
2013-06-01 01:31:00,63.7,50.9,29.84,North,0,0.0,0.0,63,0.00,,CLR,0.00,VWS V14.00,2013-06-01 08:31:00,
2013-06-01 01:36:00,63.5,51.5,29.84,North,0,0.0,0.0,65,0.00,,CLR,0.00,VWS V14.00,2013-06-01 08:36:00,
2013-06-01 01:41:00,63.2,51.2,29.85,North,0,0.0,0.0,65,0.00,,CLR,0.00,VWS V14.00,2013-06-01 08:41:00,
2013-06-01 01:46:00,63.1,51.6,29.84,North,0,0.0,0.0,66,0.00,,CLR,0.00,VWS V14.00,2013-06-01 08:46:00,
2013-06-01 01:51:00,62.9,51.8,29.84,North,0,0.0,0.0,67,0.00,,CLR,0.00,VWS V14.00,2013-06-01 08:51:00,
2013-06-01 01:56:00,63.0,52.3,29.85,North,0,0.0,0.0,68,0.00,,CLR,0.00,VWS V14.00,2013-06-01 08:56:00,
2013-06-01 02:00:00,62.9,52.2,29.84,North,0,0.0,0.0,68,0.00,,CLR,0.00,VWS V14.00,2013-06-01 09:00:00,
2013-06-01 02:01:00,62.5,51.8,29.84,North,0,0.0,0.0,68,0.00,,CLR,0.00,VWS V14.00,2013-06-01 09:01:00,
2013-06-01 02:06:00,62.3,52.0,29.84,North,0,0.0,0.0,69,0.00,,CLR,0.00,VWS V14.00,2013-06-01 09:06:00,
2013-06-01 02:11:00,62.3,52.0,29.84,North,0,0.0,0.0,69,0.00,,CLR,0.00,VWS V14.00,2013-06-01 09:11:00,
2013-06-01 02:16:00,62.3,52.0,29.84,North,0,0.0,0.0,69,0.00,,CLR,0.00,VWS V14.00,2013-06-01 09:16:00,
2013-06-01 02:21:00,62.1,51.0,29.84,North,0,0.0,0.0,67,0.00,,CLR,0.00,VWS V14.00,2013-06-01 09:21:00,
2013-06-01 02:26:00,62.1,50.6,29.84,North,0,0.0,0.0,66,0.00,,CLR,0.00,VWS V14.00,2013-06-01 09:26:00,
2013-06-01 02:30:00,61.9,50.4,29.84,North,0,0.0,0.0,66,0.00,,CLR,0.00,VWS V14.00,2013-06-01 09:30:00,
2013-06-01 02:31:00,61.9,50.4,29.84,North,0,0.0,0.0,66,0.00,,CLR,0.00,VWS V14.00,2013-06-01 09:31:00,
2013-06-01 02:36:00,61.8,50.3,29.84,North,0,0.0,0.0,66,0.00,,CLR,0.00,VWS V14.00,2013-06-01 09:36:00,
2013-06-01 02:41:00,61.6,49.7,29.84,North,0,0.0,0.0,65,0.00,,CLR,0.00,VWS V14.00,2013-06-01 09:41:00,
2013-06-01 02:46:00,61.4,50.0,29.84,North,0,0.0,0.0,66,0.00,,CLR,0.00,VWS V14.00,2013-06-01 09:46:00,
2013-06-01 02:51:00,61.4,50.0,29.83,North,0,0.0,0.0,66,0.00,,CLR,0.00,VWS V14.00,2013-06-01 09:51:00,
2013-06-01 02:56:00,61.3,50.3,29.83,North,0,0.0,0.0,67,0.00,,CLR,0.00,VWS V14.00,2013-06-01 09:56:00,
2013-06-01 03:00:00,61.3,50.3,29.83,North,0,0.0,0.0,67,0.00,,CLR,0.00,VWS V14.00,2013-06-01 10:00:00,
2013-06-01 03:01:00,60.9,50.3,29.83,North,0,0.0,0.0,68,0.00,,CLR,0.00,VWS V14.00,2013-06-01 10:01:00,
2013-06-01 03:06:00,60.9,50.7,29.83,North,0,0.0,0.0,69,0.00,,CLR,0.00,VWS V14.00,2013-06-01 10:06:00,
2013-06-01 03:11:00,60.9,51.1,29.83,North,0,0.0,0.0,70,0.00,,CLR,0.00,VWS V14.00,2013-06-01 10:11:00,
2013-06-01 03:16:00,60.7,50.9,29.83,North,0,0.0,0.0,70,0.00,,CLR,0.00,VWS V14.00,2013-06-01 10:16:00,
2013-06-01 03:21:00,60.2,50.8,29.83,North,0,0.0,0.0,71,0.00,,CLR,0.00,VWS V14.00,2013-06-01 10:21:00,
2013-06-01 03:26:00,60.2,50.8,29.83,North,0,0.0,0.0,71,0.00,,CLR,0.00,VWS V14.00,2013-06-01 10:26:00,
2013-06-01 03:30:00,60.0,50.2,29.83,North,0,0.0,0.0,70,0.00,,CLR,0.00,VWS V14.00,2013-06-01 10:30:00,
2013-06-01 03:31:00,60.1,50.7,29.83,North,0,0.0,0.0,71,0.00,,CLR,0.00,VWS V14.00,2013-06-01 10:31:00,
2013-06-01 03:36:00,59.8,50.8,29.83,North,0,0.0,0.0,72,0.00,,CLR,0.00,VWS V14.00,2013-06-01 10:36:00,
2013-06-01 03:41:00,59.9,50.9,29.83,North,0,0.0,0.0,72,0.00,,CLR,0.00,VWS V14.00,2013-06-01 10:41:00,
2013-06-01 03:46:00,59.6,51.0,29.82,North,0,0.0,0.0,73,0.00,,CLR,0.00,VWS V14.00,2013-06-01 10:46:00,
2013-06-01 03:51:00,59.7,51.0,29.83,North,0,0.0,0.0,73,0.00,,CLR,0.00,VWS V14.00,2013-06-01 10:51:00,
2013-06-01 03:56:00,59.6,51.0,29.82,North,0,0.0,0.0,73,0.00,,CLR,0.00,VWS V14.00,2013-06-01 10:56:00,
2013-06-01 04:00:00,59.4,51.1,29.82,North,0,0.0,0.0,74,0.00,,CLR,0.00,VWS V14.00,2013-06-01 11:00:00,
2013-06-01 04:01:00,59.3,51.0,29.82,North,0,0.0,0.0,74,0.00,,CLR,0.00,VWS V14.00,2013-06-01 11:01:00,
2013-06-01 04:06:00,59.0,50.7,29.82,North,0,0.0,0.0,74,0.00,,CLR,0.00,VWS V14.00,2013-06-01 11:06:00,
2013-06-01 04:11:00,59.1,50.8,29.82,North,0,0.0,0.0,74,0.00,,CLR,0.00,VWS V14.00,2013-06-01 11:11:00,
2013-06-01 04:16:00,58.9,51.0,29.82,North,0,0.0,0.0,75,0.00,,CLR,0.00,VWS V14.00,2013-06-01 11:16:00,
2013-06-01 04:21:00,58.8,50.9,29.82,North,0,0.0,0.0,75,0.00,,CLR,0.00,VWS V14.00,2013-06-01 11:21:00,
2013-06-01 04:26:00,58.5,51.0,29.82,North,0,0.0,0.0,76,0.00,,CLR,0.00,VWS V14.00,2013-06-01 11:26:00,
2013-06-01 04:30:00,58.6,51.1,29.82,North,0,0.0,0.0,76,0.00,,CLR,0.00,VWS V14.00,2013-06-01 11:30:00,
2013-06-01 04:31:00,58.5,51.0,29.82,North,0,0.0,0.0,76,0.00,,CLR,0.00,VWS V14.00,2013-06-01 11:31:00,
2013-06-01 04:36:00,58.2,50.7,29.81,North,0,0.0,0.0,76,0.00,,CLR,0.00,VWS V14.00,2013-06-01 11:36:00,
2013-06-01 04:41:00,58.3,50.8,29.82,North,0,0.0,0.0,76,0.00,,CLR,0.00,VWS V14.00,2013-06-01 11:41:00,
2013-06-01 04:46:00,58.3,50.8,29.82,North,0,0.0,0.0,76,0.00,,CLR,0.00,VWS V14.00,2013-06-01 11:46:00,
2013-06-01 04:51:00,57.8,50.7,29.81,North,0,0.0,0.0,77,0.00,,CLR,0.00,VWS V14.00,2013-06-01 11:51:00,
2013-06-01 04:56:00,57.8,50.7,29.82,North,0,0.0,0.0,77,0.00,,CLR,0.00,VWS V14.00,2013-06-01 11:56:00,
2013-06-01 05:00:00,57.9,50.7,29.82,North,0,0.0,0.0,77,0.00,,CLR,0.00,VWS V14.00,2013-06-01 12:00:00,
2013-06-01 05:01:00,57.7,50.9,29.81,North,0,0.0,0.0,78,0.00,,CLR,0.00,VWS V14.00,2013-06-01 12:01:00,
2013-06-01 05:06:00,57.7,50.9,29.82,North,0,0.0,0.0,78,0.00,,CLR,0.00,VWS V14.00,2013-06-01 12:06:00,
2013-06-01 05:11:00,57.7,50.5,29.82,North,0,0.0,0.0,77,0.00,,CLR,0.00,VWS V14.00,2013-06-01 12:11:00,
2013-06-01 05:16:00,57.5,50.7,29.81,North,0,0.0,0.0,78,0.00,,CLR,0.00,VWS V14.00,2013-06-01 12:16:00,
2013-06-01 05:21:00,57.3,50.5,29.81,North,0,0.0,0.0,78,0.00,,CLR,0.00,VWS V14.00,2013-06-01 12:21:00,
2013-06-01 05:26:00,57.2,50.8,29.81,North,0,0.0,0.0,79,0.00,,CLR,0.00,VWS V14.00,2013-06-01 12:26:00,
2013-06-01 05:30:00,57.0,50.2,29.81,North,0,0.0,0.0,78,0.00,,CLR,0.00,VWS V14.00,2013-06-01 12:30:00,
2013-06-01 05:31:00,57.3,50.5,29.81,North,0,0.0,0.0,78,0.00,,CLR,0.00,VWS V14.00,2013-06-01 12:31:00,
2013-06-01 05:36:00,57.0,50.6,29.81,North,0,0.0,0.0,79,0.00,,CLR,0.00,VWS V14.00,2013-06-01 12:36:00,
2013-06-01 05:41:00,56.9,50.5,29.81,North,0,0.0,0.0,79,0.00,,CLR,0.00,VWS V14.00,2013-06-01 12:41:00,
2013-06-01 05:46:00,56.8,50.7,29.81,North,0,0.0,0.0,80,0.00,,CLR,0.00,VWS V14.00,2013-06-01 12:46:00,
2013-06-01 05:51:00,56.7,50.6,29.81,North,0,0.0,0.0,80,0.00,,CLR,0.00,VWS V14.00,2013-06-01 12:51:00,
2013-06-01 05:56:00,56.6,50.5,29.81,North,0,0.0,0.0,80,0.00,,CLR,0.00,VWS V14.00,2013-06-01 12:56:00,
2013-06-01 06:00:00,56.6,50.8,29.81,North,0,0.0,0.0,81,0.00,,CLR,0.00,VWS V14.00,2013-06-01 13:00:00,
2013-06-01 06:01:00,56.7,50.6,29.81,North,0,0.0,0.0,80,0.00,,CLR,0.00,VWS V14.00,2013-06-01 13:01:00,
2013-06-01 06:06:00,56.8,51.4,29.81,North,0,0.0,0.0,82,0.00,,CLR,0.00,VWS V14.00,2013-06-01 13:06:00,
2013-06-01 06:11:00,56.7,51.3,29.81,North,0,0.0,0.0,82,0.00,,CLR,0.00,VWS V14.00,2013-06-01 13:11:00,
2013-06-01 06:16:00,56.7,50.9,29.81,North,0,0.0,0.0,81,0.00,,CLR,0.00,VWS V14.00,2013-06-01 13:16:00,
2013-06-01 06:21:00,56.6,50.8,29.82,North,0,0.0,0.0,81,0.00,,CLR,0.00,VWS V14.00,2013-06-01 13:21:00,
2013-06-01 06:26:00,56.5,51.1,29.82,North,0,0.0,0.0,82,0.00,,CLR,0.00,VWS V14.00,2013-06-01 13:26:00,
2013-06-01 06:30:00,56.5,50.8,29.82,North,0,0.0,0.0,81,0.00,,CLR,0.00,VWS V14.00,2013-06-01 13:30:00,
2013-06-01 06:31:00,56.6,50.8,29.82,North,0,0.0,0.0,81,0.00,,CLR,0.00,VWS V14.00,2013-06-01 13:31:00,
2013-06-01 06:36:00,56.6,50.5,29.83,North,0,0.0,0.0,80,0.00,,CLR,0.00,VWS V14.00,2013-06-01 13:36:00,
2013-06-01 06:41:00,56.7,50.6,29.83,North,0,0.0,0.0,80,0.00,,CLR,0.00,VWS V14.00,2013-06-01 13:41:00,
2013-06-01 06:46:00,56.7,50.6,29.82,North,0,0.0,0.0,80,0.00,,CLR,0.00,VWS V14.00,2013-06-01 13:46:00,
2013-06-01 06:51:00,56.9,50.8,29.83,North,0,0.0,0.0,80,0.00,,CLR,0.00,VWS V14.00,2013-06-01 13:51:00,
2013-06-01 06:56:00,57.1,51.0,29.82,North,0,0.0,0.0,80,0.00,,CLR,0.00,VWS V14.00,2013-06-01 13:56:00,
2013-06-01 07:00:00,57.1,50.7,29.82,North,0,0.0,0.0,79,0.00,,CLR,0.00,VWS V14.00,2013-06-01 14:00:00,
2013-06-01 07:01:00,57.1,50.3,29.83,North,0,0.0,0.0,78,0.00,,CLR,0.00,VWS V14.00,2013-06-01 14:01:00,
2013-06-01 07:06:00,57.3,50.5,29.83,North,0,0.0,0.0,78,0.00,,CLR,0.00,VWS V14.00,2013-06-01 14:06:00,
2013-06-01 07:11:00,57.3,50.8,29.83,North,0,0.0,0.0,79,0.00,,CLR,0.00,VWS V14.00,2013-06-01 14:11:00,
2013-06-01 07:16:00,57.7,50.9,29.83,North,0,0.0,0.0,78,0.00,,CLR,0.00,VWS V14.00,2013-06-01 14:16:00,
2013-06-01 07:21:00,57.8,51.3,29.82,North,0,0.0,1.0,79,0.00,,CLR,0.00,VWS V14.00,2013-06-01 14:21:00,
2013-06-01 07:26:00,58.3,51.5,29.82,North,0,0.0,1.0,78,0.00,,CLR,0.00,VWS V14.00,2013-06-01 14:26:00,
2013-06-01 07:30:00,58.4,51.6,29.83,North,0,0.0,1.0,78,0.00,,CLR,0.00,VWS V14.00,2013-06-01 14:30:00,
2013-06-01 07:31:00,58.3,51.5,29.83,North,0,0.0,0.0,78,0.00,,CLR,0.00,VWS V14.00,2013-06-01 14:31:00,
2013-06-01 07:36:00,58.5,52.0,29.82,North,0,0.0,0.0,79,0.00,,CLR,0.00,VWS V14.00,2013-06-01 14:36:00,
2013-06-01 07:41:00,58.7,51.9,29.82,North,0,0.0,0.0,78,0.00,,CLR,0.00,VWS V14.00,2013-06-01 14:41:00,
2013-06-01 07:46:00,59.1,51.9,29.83,North,0,0.0,0.0,77,0.00,,CLR,0.00,VWS V14.00,2013-06-01 14:46:00,
2013-06-01 07:51:00,59.2,51.7,29.83,North,0,0.0,0.0,76,0.00,,CLR,0.00,VWS V14.00,2013-06-01 14:51:00,
2013-06-01 07:56:00,59.5,52.3,29.82,North,0,0.0,0.0,77,0.00,,CLR,0.00,VWS V14.00,2013-06-01 14:56:00,
2013-06-01 08:00:00,59.6,52.0,29.83,North,0,0.0,0.0,76,0.00,,CLR,0.00,VWS V14.00,2013-06-01 15:00:00,
2013-06-01 08:01:00,59.8,52.2,29.83,North,0,0.0,0.0,76,0.00,,CLR,0.00,VWS V14.00,2013-06-01 15:01:00,
2013-06-01 08:06:00,60.3,52.7,29.83,North,0,0.0,0.0,76,0.00,,CLR,0.00,VWS V14.00,2013-06-01 15:06:00,
2013-06-01 08:11:00,60.9,52.9,29.83,North,0,0.0,0.0,75,0.00,,CLR,0.00,VWS V14.00,2013-06-01 15:11:00,
2013-06-01 08:16:00,61.3,52.6,29.83,North,0,0.0,0.0,73,0.00,,CLR,0.00,VWS V14.00,2013-06-01 15:16:00,
2013-06-01 08:21:00,61.4,52.7,29.83,North,0,0.0,0.0,73,0.00,,CLR,0.00,VWS V14.00,2013-06-01 15:21:00,
2013-06-01 08:26:00,61.9,53.2,29.83,North,0,0.0,0.0,73,0.00,,CLR,0.00,VWS V14.00,2013-06-01 15:26:00,
2013-06-01 08:30:00,62.4,53.6,29.83,North,0,0.0,1.0,73,0.00,,CLR,0.00,VWS V14.00,2013-06-01 15:30:00,
2013-06-01 08:31:00,62.5,53.4,29.83,North,0,0.0,0.0,72,0.00,,CLR,0.00,VWS V14.00,2013-06-01 15:31:00,
2013-06-01 08:36:00,63.1,53.6,29.83,North,0,0.0,1.0,71,0.00,,CLR,0.00,VWS V14.00,2013-06-01 15:36:00,
2013-06-01 08:41:00,63.9,53.9,29.83,North,0,0.0,1.0,70,0.00,,CLR,0.00,VWS V14.00,2013-06-01 15:41:00,
2013-06-01 08:46:00,63.9,53.5,29.83,North,0,0.0,1.0,69,0.00,,CLR,0.00,VWS V14.00,2013-06-01 15:46:00,
2013-06-01 08:51:00,64.5,53.3,29.83,North,0,0.0,1.0,67,0.00,,CLR,0.00,VWS V14.00,2013-06-01 15:51:00,
2013-06-01 08:56:00,65.3,53.2,29.83,North,0,0.0,1.0,65,0.00,,CLR,0.00,VWS V14.00,2013-06-01 15:56:00,
2013-06-01 09:00:00,65.5,54.7,29.83,North,0,0.0,1.0,68,0.00,,CLR,0.00,VWS V14.00,2013-06-01 16:00:00,
2013-06-01 09:01:00,65.4,54.2,29.83,North,0,0.0,1.0,67,0.00,,CLR,0.00,VWS V14.00,2013-06-01 16:01:00,
2013-06-01 09:06:00,66.0,54.7,29.83,North,0,0.0,2.0,67,0.00,,CLR,0.00,VWS V14.00,2013-06-01 16:06:00,
2013-06-01 09:11:00,66.2,54.9,29.83,North,0,0.0,2.0,67,0.00,,CLR,0.00,VWS V14.00,2013-06-01 16:11:00,
2013-06-01 09:16:00,66.9,55.6,29.83,North,0,0.0,2.0,67,0.00,,CLR,0.00,VWS V14.00,2013-06-01 16:16:00,
2013-06-01 09:21:00,67.6,55.0,29.83,North,0,0.0,2.0,64,0.00,,CLR,0.00,VWS V14.00,2013-06-01 16:21:00,
2013-06-01 09:26:00,67.9,55.3,29.82,North,0,0.0,2.0,64,0.00,,CLR,0.00,VWS V14.00,2013-06-01 16:26:00,
2013-06-01 09:30:00,68.3,55.2,29.82,North,0,0.0,2.0,63,0.00,,CLR,0.00,VWS V14.00,2013-06-01 16:30:00,
2013-06-01 09:31:00,68.5,55.4,29.82,North,0,0.0,0.0,63,0.00,,CLR,0.00,VWS V14.00,2013-06-01 16:31:00,
2013-06-01 09:36:00,69.3,56.2,29.82,North,0,0.0,0.0,63,0.00,,CLR,0.00,VWS V14.00,2013-06-01 16:36:00,
2013-06-01 09:41:00,69.8,56.2,29.82,North,0,0.0,1.0,62,0.00,,CLR,0.00,VWS V14.00,2013-06-01 16:41:00,
2013-06-01 09:46:00,70.9,56.3,29.81,North,0,0.0,1.0,60,0.00,,CLR,0.00,VWS V14.00,2013-06-01 16:46:00,
2013-06-01 09:51:00,71.3,56.7,29.82,North,0,0.0,1.0,60,0.00,,CLR,0.00,VWS V14.00,2013-06-01 16:51:00,
2013-06-01 09:56:00,72.1,54.0,29.81,North,0,0.0,1.0,53,0.00,,CLR,0.00,VWS V14.00,2013-06-01 16:56:00,
2013-06-01 10:00:00,72.1,53.5,29.81,North,0,0.0,1.0,52,0.00,,CLR,0.00,VWS V14.00,2013-06-01 17:00:00,
2013-06-01 10:01:00,72.7,54.1,29.81,North,0,0.0,0.0,52,0.00,,CLR,0.00,VWS V14.00,2013-06-01 17:01:00,
2013-06-01 10:06:00,73.3,53.6,29.81,North,0,0.0,0.0,50,0.00,,CLR,0.00,VWS V14.00,2013-06-01 17:06:00,
2013-06-01 10:11:00,73.9,54.7,29.81,North,0,0.0,0.0,51,0.00,,CLR,0.00,VWS V14.00,2013-06-01 17:11:00,
2013-06-01 10:16:00,74.3,53.9,29.81,North,0,0.0,1.0,49,0.00,,CLR,0.00,VWS V14.00,2013-06-01 17:16:00,
2013-06-01 10:21:00,74.8,53.8,29.81,North,0,0.0,1.0,48,0.00,,CLR,0.00,VWS V14.00,2013-06-01 17:21:00,
2013-06-01 10:26:00,75.5,55.0,29.81,North,0,0.0,1.0,49,0.00,,CLR,0.00,VWS V14.00,2013-06-01 17:26:00,
2013-06-01 10:30:00,75.7,54.6,29.81,North,0,0.0,1.0,48,0.00,,CLR,0.00,VWS V14.00,2013-06-01 17:30:00,
2013-06-01 10:31:00,75.9,55.4,29.81,North,0,0.0,0.0,49,0.00,,CLR,0.00,VWS V14.00,2013-06-01 17:31:00,
2013-06-01 10:36:00,76.5,54.8,29.81,North,0,0.0,0.0,47,0.00,,CLR,0.00,VWS V14.00,2013-06-01 17:36:00,
2013-06-01 10:41:00,77.0,54.1,29.80,North,0,0.0,1.0,45,0.00,,CLR,0.00,VWS V14.00,2013-06-01 17:41:00,
2013-06-01 10:46:00,77.8,53.5,29.81,North,0,0.0,1.0,43,0.00,,CLR,0.00,VWS V14.00,2013-06-01 17:46:00,
2013-06-01 10:51:00,78.1,54.4,29.80,North,0,0.0,1.0,44,0.00,,CLR,0.00,VWS V14.00,2013-06-01 17:51:00,
2013-06-01 10:56:00,78.7,51.7,29.80,North,0,0.0,1.0,39,0.00,,CLR,0.00,VWS V14.00,2013-06-01 17:56:00,
2013-06-01 11:00:00,78.7,51.7,29.80,North,0,0.0,1.0,39,0.00,,CLR,0.00,VWS V14.00,2013-06-01 18:00:00,
2013-06-01 11:01:00,79.2,52.8,29.80,North,0,1.0,1.0,40,0.00,,CLR,0.00,VWS V14.00,2013-06-01 18:01:00,
2013-06-01 11:06:00,79.6,51.8,29.80,North,0,0.0,2.0,38,0.00,,CLR,0.00,VWS V14.00,2013-06-01 18:06:00,
2013-06-01 11:11:00,80.1,50.8,29.79,North,0,0.0,2.0,36,0.00,,CLR,0.00,VWS V14.00,2013-06-01 18:11:00,
2013-06-01 11:16:00,80.7,50.5,29.79,North,0,0.0,2.0,35,0.00,,CLR,0.00,VWS V14.00,2013-06-01 18:16:00,
2013-06-01 11:21:00,81.2,49.4,29.79,North,0,0.0,2.0,33,0.00,,CLR,0.00,VWS V14.00,2013-06-01 18:21:00,
2013-06-01 11:26:00,81.7,49.8,29.79,North,3,0.0,2.0,33,0.00,,CLR,0.00,VWS V14.00,2013-06-01 18:26:00,
2013-06-01 11:30:00,82.2,50.3,29.79,North,3,0.0,2.0,33,0.00,,CLR,0.00,VWS V14.00,2013-06-01 18:30:00,
2013-06-01 11:31:00,82.4,50.4,29.79,North,2,0.0,2.0,33,0.00,,CLR,0.00,VWS V14.00,2013-06-01 18:31:00,
2013-06-01 11:36:00,82.9,49.2,29.79,North,2,1.0,2.0,31,0.00,,CLR,0.00,VWS V14.00,2013-06-01 18:36:00,
2013-06-01 11:41:00,83.4,51.3,29.79,North,5,0.0,3.0,33,0.00,,CLR,0.00,VWS V14.00,2013-06-01 18:41:00,
2013-06-01 11:46:00,84.0,49.3,29.79,North,6,0.0,4.0,30,0.00,,CLR,0.00,VWS V14.00,2013-06-01 18:46:00,
2013-06-01 11:51:00,84.4,48.7,29.79,North,5,0.0,4.0,29,0.00,,CLR,0.00,VWS V14.00,2013-06-01 18:51:00,
2013-06-01 11:56:00,84.9,50.9,29.79,North,1,0.0,4.0,31,0.00,,CLR,0.00,VWS V14.00,2013-06-01 18:56:00,
2013-06-01 12:00:00,85.2,50.3,29.79,North,0,0.0,4.0,30,0.00,,CLR,0.00,VWS V14.00,2013-06-01 19:00:00,
2013-06-01 12:01:00,85.3,48.5,29.78,North,0,0.0,1.0,28,0.00,,CLR,0.00,VWS V14.00,2013-06-01 19:01:00,
2013-06-01 12:06:00,85.7,52.5,29.78,North,0,0.0,1.0,32,0.00,,CLR,0.00,VWS V14.00,2013-06-01 19:06:00,
2013-06-01 12:11:00,86.4,51.3,29.78,North,0,0.0,1.0,30,0.00,,CLR,0.00,VWS V14.00,2013-06-01 19:11:00,
2013-06-01 12:16:00,86.8,50.8,29.78,North,0,0.0,2.0,29,0.00,,CLR,0.00,VWS V14.00,2013-06-01 19:16:00,
2013-06-01 12:21:00,87.5,49.4,29.78,NNW,333,0.0,2.0,27,0.00,,CLR,0.00,VWS V14.00,2013-06-01 19:21:00,
2013-06-01 12:26:00,88.0,49.9,29.78,NNW,341,2.0,2.0,27,0.00,,CLR,0.00,VWS V14.00,2013-06-01 19:26:00,
2013-06-01 12:30:00,88.3,51.1,29.78,NNW,332,0.0,2.0,28,0.00,,CLR,0.00,VWS V14.00,2013-06-01 19:30:00,
2013-06-01 12:31:00,88.7,51.4,29.77,NNW,338,0.0,0.0,28,0.00,,CLR,0.00,VWS V14.00,2013-06-01 19:31:00,
2013-06-01 12:36:00,89.2,50.9,29.77,SW,235,0.0,2.0,27,0.00,,CLR,0.00,VWS V14.00,2013-06-01 19:36:00,
2013-06-01 12:41:00,89.5,50.1,29.77,SW,215,0.0,5.0,26,0.00,,CLR,0.00,VWS V14.00,2013-06-01 19:41:00,
2013-06-01 12:46:00,89.8,51.4,29.77,West,261,0.0,5.0,27,0.00,,CLR,0.00,VWS V14.00,2013-06-01 19:46:00,
2013-06-01 12:51:00,90.3,51.8,29.77,North,0,0.0,5.0,27,0.00,,CLR,0.00,VWS V14.00,2013-06-01 19:51:00,
2013-06-01 12:56:00,90.5,49.9,29.76,North,0,0.0,6.0,25,0.00,,CLR,0.00,VWS V14.00,2013-06-01 19:56:00,
2013-06-01 13:00:00,90.7,50.1,29.77,NE,50,0.0,6.0,25,0.00,,CLR,0.00,VWS V14.00,2013-06-01 20:00:00,
2013-06-01 13:01:00,91.0,50.3,29.76,NE,50,0.0,1.0,25,0.00,,CLR,0.00,VWS V14.00,2013-06-01 20:01:00,
2013-06-01 13:06:00,91.6,50.8,29.77,North,0,0.0,4.0,25,0.00,,CLR,0.00,VWS V14.00,2013-06-01 20:06:00,
2013-06-01 13:11:00,92.2,53.4,29.76,NNW,332,1.0,4.0,27,0.00,,CLR,0.00,VWS V14.00,2013-06-01 20:11:00,
2013-06-01 13:16:00,92.2,53.4,29.76,NNW,347,1.0,4.0,27,0.00,,CLR,0.00,VWS V14.00,2013-06-01 20:16:00,
2013-06-01 13:21:00,92.7,54.8,29.76,West,280,0.0,4.0,28,0.00,,CLR,0.00,VWS V14.00,2013-06-01 20:21:00,
2013-06-01 13:26:00,93.4,57.4,29.76,North,352,2.0,4.0,30,0.00,,CLR,0.00,VWS V14.00,2013-06-01 20:26:00,
2013-06-01 13:30:00,93.5,56.5,29.75,North,354,0.0,4.0,29,0.00,,CLR,0.00,VWS V14.00,2013-06-01 20:30:00,
2013-06-01 13:31:00,93.9,56.8,29.75,North,355,2.0,4.0,29,0.00,,CLR,0.00,VWS V14.00,2013-06-01 20:31:00,
2013-06-01 13:36:00,93.8,56.8,29.76,North,351,0.0,4.0,29,0.00,,CLR,0.00,VWS V14.00,2013-06-01 20:36:00,
2013-06-01 13:41:00,94.1,55.0,29.76,SSW,213,0.0,4.0,27,0.00,,CLR,0.00,VWS V14.00,2013-06-01 20:41:00,
2013-06-01 13:46:00,94.1,58.0,29.76,NW,325,0.0,4.0,30,0.00,,CLR,0.00,VWS V14.00,2013-06-01 20:46:00,
2013-06-01 13:51:00,94.8,59.5,29.75,NNW,338,0.0,4.0,31,0.00,,CLR,0.00,VWS V14.00,2013-06-01 20:51:00,
2013-06-01 13:56:00,95.0,56.8,29.75,West,276,0.0,4.0,28,0.00,,CLR,0.00,VWS V14.00,2013-06-01 20:56:00,
2013-06-01 14:00:00,95.1,57.9,29.75,WSW,238,1.0,4.0,29,0.00,,CLR,0.00,VWS V14.00,2013-06-01 21:00:00,
2013-06-01 14:01:00,95.1,58.8,29.76,North,355,0.0,4.0,30,0.00,,CLR,0.00,VWS V14.00,2013-06-01 21:01:00,
2013-06-01 14:06:00,95.6,58.3,29.75,North,0,0.0,5.0,29,0.00,,CLR,0.00,VWS V14.00,2013-06-01 21:06:00,
2013-06-01 14:11:00,95.9,59.5,29.76,WNW,301,0.0,5.0,30,0.00,,CLR,0.00,VWS V14.00,2013-06-01 21:11:00,
2013-06-01 14:16:00,95.8,59.4,29.75,North,0,0.0,5.0,30,0.00,,CLR,0.00,VWS V14.00,2013-06-01 21:16:00,
2013-06-01 14:21:00,96.2,59.8,29.75,NW,324,0.0,5.0,30,0.00,,CLR,0.00,VWS V14.00,2013-06-01 21:21:00,
2013-06-01 14:26:00,96.3,58.9,29.75,West,272,0.0,6.0,29,0.00,,CLR,0.00,VWS V14.00,2013-06-01 21:26:00,
2013-06-01 14:30:00,96.5,59.1,29.75,WNW,289,0.0,6.0,29,0.00,,CLR,0.00,VWS V14.00,2013-06-01 21:30:00,
2013-06-01 14:31:00,96.6,59.2,29.75,North,0,0.0,2.0,29,0.00,,CLR,0.00,VWS V14.00,2013-06-01 21:31:00,
2013-06-01 14:36:00,96.8,58.3,29.75,North,2,1.0,3.0,28,0.00,,CLR,0.00,VWS V14.00,2013-06-01 21:36:00,
2013-06-01 14:41:00,96.4,58.0,29.75,North,0,1.0,3.0,28,0.00,,CLR,0.00,VWS V14.00,2013-06-01 21:41:00,
2013-06-01 14:46:00,96.7,57.2,29.74,North,0,0.0,4.0,27,0.00,,CLR,0.00,VWS V14.00,2013-06-01 21:46:00,
2013-06-01 14:51:00,96.8,58.3,29.74,WNW,288,1.0,4.0,28,0.00,,CLR,0.00,VWS V14.00,2013-06-01 21:51:00,
2013-06-01 14:56:00,97.2,57.7,29.74,SW,231,0.0,4.0,27,0.00,,CLR,0.00,VWS V14.00,2013-06-01 21:56:00,
2013-06-01 15:00:00,97.3,58.8,29.74,WSW,239,0.0,4.0,28,0.00,,CLR,0.00,VWS V14.00,2013-06-01 22:00:00,
2013-06-01 15:01:00,97.1,57.6,29.74,WNW,286,2.0,2.0,27,0.00,,CLR,0.00,VWS V14.00,2013-06-01 22:01:00,
2013-06-01 15:06:00,97.1,58.6,29.73,WNW,292,1.0,3.0,28,0.00,,CLR,0.00,VWS V14.00,2013-06-01 22:06:00,
2013-06-01 15:11:00,97.0,58.5,29.73,North,0,0.0,3.0,28,0.00,,CLR,0.00,VWS V14.00,2013-06-01 22:11:00,
2013-06-01 15:16:00,97.2,58.7,29.73,North,0,0.0,3.0,28,0.00,,CLR,0.00,VWS V14.00,2013-06-01 22:16:00,
2013-06-01 15:21:00,96.9,60.4,29.73,NNW,345,2.0,3.0,30,0.00,,CLR,0.00,VWS V14.00,2013-06-01 22:21:00,
2013-06-01 15:26:00,96.9,59.4,29.72,North,9,1.0,3.0,29,0.00,,CLR,0.00,VWS V14.00,2013-06-01 22:26:00,
2013-06-01 15:30:00,97.0,58.5,29.73,NW,323,0.0,4.0,28,0.00,,CLR,0.00,VWS V14.00,2013-06-01 22:30:00,
2013-06-01 15:31:00,96.8,58.3,29.72,NNW,337,0.0,2.0,28,0.00,,CLR,0.00,VWS V14.00,2013-06-01 22:31:00,
2013-06-01 15:36:00,96.5,60.0,29.73,NW,315,0.0,3.0,30,0.00,,CLR,0.00,VWS V14.00,2013-06-01 22:36:00,
2013-06-01 15:41:00,96.2,59.8,29.72,North,350,0.0,3.0,30,0.00,,CLR,0.00,VWS V14.00,2013-06-01 22:41:00,
2013-06-01 15:46:00,96.5,60.0,29.72,NNW,345,1.0,5.0,30,0.00,,CLR,0.00,VWS V14.00,2013-06-01 22:46:00,
2013-06-01 15:51:00,96.6,59.2,29.71,NNW,347,0.0,5.0,29,0.00,,CLR,0.00,VWS V14.00,2013-06-01 22:51:00,
2013-06-01 15:56:00,96.5,59.1,29.72,SE,143,1.0,5.0,29,0.00,,CLR,0.00,VWS V14.00,2013-06-01 22:56:00,
2013-06-01 16:00:00,96.3,59.8,29.72,NNE,16,5.0,8.0,30,0.00,,CLR,0.00,VWS V14.00,2013-06-01 23:00:00,
2013-06-01 16:01:00,96.2,58.8,29.72,North,350,0.0,5.0,29,0.00,,CLR,0.00,VWS V14.00,2013-06-01 23:01:00,
2013-06-01 16:06:00,95.9,59.5,29.71,NNW,343,0.0,5.0,30,0.00,,CLR,0.00,VWS V14.00,2013-06-01 23:06:00,
2013-06-01 16:11:00,96.3,57.9,29.71,NNW,343,0.0,6.0,28,0.00,,CLR,0.00,VWS V14.00,2013-06-01 23:11:00,
2013-06-01 16:16:00,96.5,58.1,29.71,SSW,201,0.0,6.0,28,0.00,,CLR,0.00,VWS V14.00,2013-06-01 23:16:00,
2013-06-01 16:21:00,96.1,59.7,29.71,NW,316,0.0,6.0,30,0.00,,CLR,0.00,VWS V14.00,2013-06-01 23:21:00,
2013-06-01 16:26:00,95.3,58.0,29.71,North,357,0.0,6.0,29,0.00,,CLR,0.00,VWS V14.00,2013-06-01 23:26:00,
2013-06-01 16:30:00,95.2,57.0,29.71,NNW,347,1.0,6.0,28,0.00,,CLR,0.00,VWS V14.00,2013-06-01 23:30:00,
2013-06-01 16:31:00,94.9,57.7,29.71,North,356,1.0,2.0,29,0.00,,CLR,0.00,VWS V14.00,2013-06-01 23:31:00,
2013-06-01 16:36:00,94.6,56.5,29.71,North,0,0.0,3.0,28,0.00,,CLR,0.00,VWS V14.00,2013-06-01 23:36:00,
2013-06-01 16:41:00,94.5,56.4,29.70,North,0,0.0,3.0,28,0.00,,CLR,0.00,VWS V14.00,2013-06-01 23:41:00,
2013-06-01 16:46:00,94.0,56.0,29.70,North,355,1.0,6.0,28,0.00,,CLR,0.00,VWS V14.00,2013-06-01 23:46:00,
2013-06-01 16:51:00,93.6,55.6,29.70,NE,36,1.0,6.0,28,0.00,,CLR,0.00,VWS V14.00,2013-06-01 23:51:00,
2013-06-01 16:56:00,93.6,57.5,29.70,North,358,2.0,6.0,30,0.00,,CLR,0.00,VWS V14.00,2013-06-01 23:56:00,
2013-06-01 17:00:00,93.9,54.9,29.70,West,277,0.0,6.0,27,0.00,,CLR,0.00,VWS V14.00,2013-06-02 00:00:00,
2013-06-01 17:01:00,93.9,55.9,29.70,NNW,337,0.0,2.0,28,0.00,,CLR,0.00,VWS V14.00,2013-06-02 00:01:00,
2013-06-01 17:06:00,94.3,56.2,29.70,North,350,1.0,6.0,28,0.00,,CLR,0.00,VWS V14.00,2013-06-02 00:06:00,
2013-06-01 17:11:00,94.2,56.1,29.70,WNW,300,0.0,6.0,28,0.00,,CLR,0.00,VWS V14.00,2013-06-02 00:11:00,
2013-06-01 17:16:00,94.4,55.3,29.70,NNW,344,0.0,6.0,27,0.00,,CLR,0.00,VWS V14.00,2013-06-02 00:16:00,
2013-06-01 17:21:00,94.2,57.1,29.69,North,0,0.0,6.0,29,0.00,,CLR,0.00,VWS V14.00,2013-06-02 00:21:00,
2013-06-01 17:26:00,94.2,56.1,29.69,North,5,3.0,6.0,28,0.00,,CLR,0.00,VWS V14.00,2013-06-02 00:26:00,
2013-06-01 17:30:00,93.8,55.8,29.69,NW,304,3.0,6.0,28,0.00,,CLR,0.00,VWS V14.00,2013-06-02 00:30:00,
2013-06-01 17:31:00,93.6,54.6,29.69,North,0,0.0,3.0,27,0.00,,CLR,0.00,VWS V14.00,2013-06-02 00:31:00,
2013-06-01 17:36:00,93.5,55.5,29.69,SSE,159,0.0,3.0,28,0.00,,CLR,0.00,VWS V14.00,2013-06-02 00:36:00,
2013-06-01 17:41:00,93.2,55.3,29.69,North,9,2.0,3.0,28,0.00,,CLR,0.00,VWS V14.00,2013-06-02 00:41:00,
2013-06-01 17:46:00,93.1,55.2,29.69,North,351,0.0,3.0,28,0.00,,CLR,0.00,VWS V14.00,2013-06-02 00:46:00,
2013-06-01 17:51:00,92.7,53.9,29.69,North,350,0.0,3.0,27,0.00,,CLR,0.00,VWS V14.00,2013-06-02 00:51:00,
2013-06-01 17:56:00,92.6,55.7,29.69,North,358,0.0,3.0,29,0.00,,CLR,0.00,VWS V14.00,2013-06-02 00:56:00,
2013-06-01 18:00:00,92.8,53.9,29.69,NW,311,1.0,4.0,27,0.00,,CLR,0.00,VWS V14.00,2013-06-02 01:00:00,
2013-06-01 18:01:00,92.9,55.0,29.69,NNW,339,1.0,1.0,28,0.00,,CLR,0.00,VWS V14.00,2013-06-02 01:01:00,
2013-06-01 18:06:00,92.7,54.8,29.69,NW,323,0.0,2.0,28,0.00,,CLR,0.00,VWS V14.00,2013-06-02 01:06:00,
2013-06-01 18:11:00,92.8,53.9,29.69,North,0,0.0,4.0,27,0.00,,CLR,0.00,VWS V14.00,2013-06-02 01:11:00,
2013-06-01 18:16:00,92.3,53.5,29.69,NNE,30,1.0,4.0,27,0.00,,CLR,0.00,VWS V14.00,2013-06-02 01:16:00,
2013-06-01 18:21:00,91.9,54.2,29.69,North,354,0.0,4.0,28,0.00,,CLR,0.00,VWS V14.00,2013-06-02 01:21:00,
2013-06-01 18:26:00,91.5,54.8,29.68,North,355,0.0,4.0,29,0.00,,CLR,0.00,VWS V14.00,2013-06-02 01:26:00,
2013-06-01 18:30:00,91.2,53.6,29.69,North,355,0.0,4.0,28,0.00,,CLR,0.00,VWS V14.00,2013-06-02 01:30:00,
2013-06-01 18:31:00,91.1,53.5,29.69,North,359,0.0,1.0,28,0.00,,CLR,0.00,VWS V14.00,2013-06-02 01:31:00,
2013-06-01 18:36:00,91.1,53.5,29.69,NNW,335,1.0,2.0,28,0.00,,CLR,0.00,VWS V14.00,2013-06-02 01:36:00,
2013-06-01 18:41:00,90.5,53.9,29.68,NNW,337,0.0,3.0,29,0.00,,CLR,0.00,VWS V14.00,2013-06-02 01:41:00,
2013-06-01 18:46:00,90.3,52.8,29.69,NNW,339,1.0,3.0,28,0.00,,CLR,0.00,VWS V14.00,2013-06-02 01:46:00,
2013-06-01 18:51:00,90.4,52.9,29.69,NNE,28,0.0,3.0,28,0.00,,CLR,0.00,VWS V14.00,2013-06-02 01:51:00,
2013-06-01 18:56:00,90.6,52.1,29.69,SE,133,0.0,3.0,27,0.00,,CLR,0.00,VWS V14.00,2013-06-02 01:56:00,
2013-06-01 19:00:00,90.5,52.0,29.69,SSE,166,0.0,3.0,27,0.00,,CLR,0.00,VWS V14.00,2013-06-02 02:00:00,
2013-06-01 19:01:00,90.5,53.0,29.68,SSE,166,0.0,0.0,28,0.00,,CLR,0.00,VWS V14.00,2013-06-02 02:01:00,
2013-06-01 19:06:00,90.2,52.7,29.68,NW,305,0.0,1.0,28,0.00,,CLR,0.00,VWS V14.00,2013-06-02 02:06:00,
2013-06-01 19:11:00,89.8,52.4,29.68,NW,320,0.0,1.0,28,0.00,,CLR,0.00,VWS V14.00,2013-06-02 02:11:00,
2013-06-01 19:16:00,89.5,52.1,29.68,North,350,0.0,3.0,28,0.00,,CLR,0.00,VWS V14.00,2013-06-02 02:16:00,
2013-06-01 19:21:00,89.0,52.7,29.68,North,350,0.0,3.0,29,0.00,,CLR,0.00,VWS V14.00,2013-06-02 02:21:00,
2013-06-01 19:26:00,88.5,51.3,29.68,North,350,1.0,3.0,28,0.00,,CLR,0.00,VWS V14.00,2013-06-02 02:26:00,
2013-06-01 19:30:00,88.5,52.2,29.69,North,350,0.0,3.0,29,0.00,,CLR,0.00,VWS V14.00,2013-06-02 02:30:00,
2013-06-01 19:31:00,88.7,51.4,29.69,North,350,0.0,0.0,28,0.00,,CLR,0.00,VWS V14.00,2013-06-02 02:31:00,
2013-06-01 19:36:00,88.3,52.0,29.69,North,350,0.0,0.0,29,0.00,,CLR,0.00,VWS V14.00,2013-06-02 02:36:00,
2013-06-01 19:41:00,88.4,52.1,29.68,North,350,0.0,1.0,29,0.00,,CLR,0.00,VWS V14.00,2013-06-02 02:41:00,
2013-06-01 19:46:00,88.1,52.8,29.68,North,350,0.0,1.0,30,0.00,,CLR,0.00,VWS V14.00,2013-06-02 02:46:00,
2013-06-01 19:51:00,87.4,53.1,29.69,North,350,0.0,1.0,31,0.00,,CLR,0.00,VWS V14.00,2013-06-02 02:51:00,
2013-06-01 19:56:00,87.0,53.6,29.68,North,350,0.0,1.0,32,0.00,,CLR,0.00,VWS V14.00,2013-06-02 02:56:00,
2013-06-01 20:00:00,86.8,53.4,29.69,North,350,0.0,1.0,32,0.00,,CLR,0.00,VWS V14.00,2013-06-02 03:00:00,
2013-06-01 20:01:00,86.7,54.2,29.68,North,350,0.0,0.0,33,0.00,,CLR,0.00,VWS V14.00,2013-06-02 03:01:00,
2013-06-01 20:06:00,86.4,53.9,29.68,North,350,0.0,0.0,33,0.00,,CLR,0.00,VWS V14.00,2013-06-02 03:06:00,
2013-06-01 20:11:00,86.0,53.6,29.68,North,350,0.0,0.0,33,0.00,,CLR,0.00,VWS V14.00,2013-06-02 03:11:00,
2013-06-01 20:16:00,85.7,54.1,29.68,North,350,0.0,0.0,34,0.00,,CLR,0.00,VWS V14.00,2013-06-02 03:16:00,
2013-06-01 20:21:00,85.5,54.8,29.69,North,349,0.0,0.0,35,0.00,,CLR,0.00,VWS V14.00,2013-06-02 03:21:00,
2013-06-01 20:26:00,84.8,54.1,29.69,North,350,0.0,0.0,35,0.00,,CLR,0.00,VWS V14.00,2013-06-02 03:26:00,
2013-06-01 20:30:00,84.6,53.2,29.68,North,350,0.0,0.0,34,0.00,,CLR,0.00,VWS V14.00,2013-06-02 03:30:00,
2013-06-01 20:31:00,84.6,53.2,29.68,North,350,0.0,1.0,34,0.00,,CLR,0.00,VWS V14.00,2013-06-02 03:31:00,
2013-06-01 20:36:00,84.7,53.3,29.68,North,350,0.0,1.0,34,0.00,,CLR,0.00,VWS V14.00,2013-06-02 03:36:00,
2013-06-01 20:41:00,84.3,54.5,29.68,North,350,0.0,1.0,36,0.00,,CLR,0.00,VWS V14.00,2013-06-02 03:41:00,
2013-06-01 20:46:00,83.8,55.5,29.68,North,349,0.0,1.0,38,0.00,,,0.00,VWS V14.00,2013-06-02 03:46:00,
2013-06-01 20:51:00,83.5,55.2,29.68,North,349,0.0,1.0,38,0.00,,,0.00,VWS V14.00,2013-06-02 03:51:00,
2013-06-01 20:56:00,83.6,53.8,29.68,NNW,342,0.0,2.0,36,0.00,,,0.00,VWS V14.00,2013-06-02 03:56:00,
2013-06-01 21:00:00,84.1,53.5,29.69,West,269,0.0,2.0,35,0.00,,CLR,0.00,VWS V14.00,2013-06-02 04:00:00,
2013-06-01 21:01:00,83.9,54.1,29.69,West,269,0.0,0.0,36,0.00,,,0.00,VWS V14.00,2013-06-02 04:01:00,
2013-06-01 21:02:00,83.7,53.9,29.68,West,269,0.0,1.0,36,0.00,,,0.00,VWS V14.00,2013-06-02 04:02:00,
2013-06-01 21:07:00,83.4,53.7,29.69,West,269,0.0,1.0,36,0.00,,,0.00,VWS V14.00,2013-06-02 04:07:00,
2013-06-01 21:12:00,83.1,53.4,29.68,West,270,0.0,1.0,36,0.00,,,0.00,VWS V14.00,2013-06-02 04:12:00,
2013-06-01 21:17:00,82.7,53.8,29.69,West,260,0.0,1.0,37,0.00,,,0.00,VWS V14.00,2013-06-02 04:17:00,
2013-06-01 21:22:00,82.6,53.7,29.69,WSW,242,0.0,2.0,37,0.00,,,0.00,VWS V14.00,2013-06-02 04:22:00,
2013-06-01 21:27:00,82.6,53.7,29.69,SSW,204,0.0,4.0,37,0.00,,,0.00,VWS V14.00,2013-06-02 04:27:00,
2013-06-01 21:30:00,82.3,54.2,29.69,SSW,202,0.0,4.0,38,0.00,,CLR,0.00,VWS V14.00,2013-06-02 04:30:00,
2013-06-01 21:32:00,82.0,53.9,29.69,SSW,201,0.0,0.0,38,0.00,,,0.00,VWS V14.00,2013-06-02 04:32:00,
2013-06-01 21:37:00,80.9,55.7,29.70,SSW,201,0.0,0.0,42,0.00,,,0.00,VWS V14.00,2013-06-02 04:37:00,
2013-06-01 21:42:00,80.5,56.0,29.70,SSW,201,0.0,1.0,43,0.00,,,0.00,VWS V14.00,2013-06-02 04:42:00,
2013-06-01 21:47:00,80.4,55.9,29.70,SSW,202,0.0,1.0,43,0.00,,CLR,0.00,VWS V14.00,2013-06-02 04:47:00,
2013-06-01 21:52:00,80.1,56.9,29.70,SSW,211,0.0,3.0,45,0.00,,CLR,0.00,VWS V14.00,2013-06-02 04:52:00,
2013-06-01 21:57:00,80.5,57.2,29.71,SSW,210,0.0,3.0,45,0.00,,CLR,0.00,VWS V14.00,2013-06-02 04:57:00,
2013-06-01 22:00:00,79.8,56.6,29.71,SSW,210,0.0,3.0,45,0.00,,CLR,0.00,VWS V14.00,2013-06-02 05:00:00,
2013-06-01 22:02:00,79.8,57.2,29.71,SSW,211,0.0,1.0,46,0.00,,CLR,0.00,VWS V14.00,2013-06-02 05:02:00,
2013-06-01 22:07:00,79.2,56.7,29.70,SSW,210,0.0,1.0,46,0.00,,CLR,0.00,VWS V14.00,2013-06-02 05:07:00,
2013-06-01 22:12:00,78.5,57.2,29.70,SSW,213,0.0,1.0,48,0.00,,CLR,0.00,VWS V14.00,2013-06-02 05:12:00,
2013-06-01 22:17:00,77.7,57.6,29.71,SSW,213,0.0,1.0,50,0.00,,CLR,0.00,VWS V14.00,2013-06-02 05:17:00,
2013-06-01 22:22:00,76.9,57.4,29.71,SSW,213,0.0,1.0,51,0.00,,CLR,0.00,VWS V14.00,2013-06-02 05:22:00,
2013-06-01 22:27:00,75.9,57.0,29.71,SSW,213,0.0,1.0,52,0.00,,CLR,0.00,VWS V14.00,2013-06-02 05:27:00,
2013-06-01 22:30:00,75.7,56.8,29.71,SSW,213,0.0,1.0,52,0.00,,CLR,0.00,VWS V14.00,2013-06-02 05:30:00,
2013-06-01 22:32:00,75.7,57.4,29.70,SW,214,0.0,2.0,53,0.00,,CLR,0.00,VWS V14.00,2013-06-02 05:32:00,
2013-06-01 22:37:00,75.0,56.7,29.71,SW,214,0.0,2.0,53,0.00,,CLR,0.00,VWS V14.00,2013-06-02 05:37:00,
2013-06-01 22:42:00,74.3,56.6,29.71,SW,214,0.0,2.0,54,0.00,,CLR,0.00,VWS V14.00,2013-06-02 05:42:00,
2013-06-01 22:47:00,73.9,56.2,29.71,SW,214,0.0,2.0,54,0.00,,CLR,0.00,VWS V14.00,2013-06-02 05:47:00,
2013-06-01 22:52:00,73.8,56.1,29.70,SW,214,0.0,2.0,54,0.00,,CLR,0.00,VWS V14.00,2013-06-02 05:52:00,
2013-06-01 22:57:00,73.2,57.1,29.70,SW,219,0.0,2.0,57,0.00,,CLR,0.00,VWS V14.00,2013-06-02 05:57:00,
2013-06-01 23:00:00,73.0,56.9,29.70,SW,218,0.0,2.0,57,0.00,,CLR,0.00,VWS V14.00,2013-06-02 06:00:00,
2013-06-01 23:02:00,72.8,56.7,29.70,SW,218,0.0,1.0,57,0.00,,CLR,0.00,VWS V14.00,2013-06-02 06:02:00,
2013-06-01 23:07:00,72.6,56.5,29.70,SW,220,0.0,2.0,57,0.00,,CLR,0.00,VWS V14.00,2013-06-02 06:07:00,
2013-06-01 23:12:00,72.3,56.7,29.70,SW,220,0.0,2.0,58,0.00,,CLR,0.00,VWS V14.00,2013-06-02 06:12:00,
2013-06-01 23:17:00,72.1,57.0,29.70,SW,219,0.0,2.0,59,0.00,,CLR,0.00,VWS V14.00,2013-06-02 06:17:00,
2013-06-01 23:22:00,71.4,56.3,29.70,SW,220,0.0,2.0,59,0.00,,CLR,0.00,VWS V14.00,2013-06-02 06:22:00,
2013-06-01 23:27:00,71.5,56.9,29.70,SW,220,0.0,2.0,60,0.00,,CLR,0.00,VWS V14.00,2013-06-02 06:27:00,
2013-06-01 23:30:00,71.2,57.1,29.70,SW,220,0.0,2.0,61,0.00,,CLR,0.00,VWS V14.00,2013-06-02 06:30:00,
2013-06-01 23:32:00,71.1,56.5,29.70,SW,220,0.0,0.0,60,0.00,,CLR,0.00,VWS V14.00,2013-06-02 06:32:00,
2013-06-01 23:37:00,70.8,56.2,29.70,SW,220,0.0,0.0,60,0.00,,CLR,0.00,VWS V14.00,2013-06-02 06:37:00,
2013-06-01 23:42:00,70.3,55.8,29.70,SW,220,0.0,0.0,60,0.00,,CLR,0.00,VWS V14.00,2013-06-02 06:42:00,
2013-06-01 23:47:00,70.0,55.5,29.70,SW,220,0.0,0.0,60,0.00,,CLR,0.00,VWS V14.00,2013-06-02 06:47:00,
2013-06-01 23:52:00,69.9,55.8,29.70,SW,216,0.0,4.0,61,0.00,,CLR,0.00,VWS V14.00,2013-06-02 06:52:00,
2013-06-01 23:57:00,69.6,55.6,29.70,SW,216,0.0,4.0,61,0.00,,CLR,0.00,VWS V14.00,2013-06-02 06:57:00,